Time,TemperatureF,DewpointF,PressureIn,WindDirection,WindDirectionDegrees,WindSpeedMPH,WindSpeedGustMPH,Humidity,HourlyPrecipIn,Conditions,Clouds,dailyrainin,SoftwareType,DateUTC
2013-01-10 00:03:00,32.0,27.4,30.47,SSW,202,1.6,-999.0,83,-99.99,,,0.00,Acu-Link.com,2013-01-10 05:03:00,
2013-01-10 00:19:00,32.0,28.0,30.47,SE,135,0.0,-999.0,85,-99.99,,,0.00,Acu-Link.com,2013-01-10 05:19:00,
2013-01-10 00:34:00,32.0,28.6,30.49,West,270,0.0,-999.0,87,-99.99,,,0.00,Acu-Link.com,2013-01-10 05:34:00,
2013-01-10 00:49:00,32.0,28.6,30.50,SSW,202,0.0,-999.0,87,-99.99,,,0.00,Acu-Link.com,2013-01-10 05:49:00,
2013-01-10 01:04:00,30.2,27.1,30.51,South,180,0.0,-999.0,88,-99.99,,,0.00,Acu-Link.com,2013-01-10 06:04:00,
2013-01-10 01:19:00,30.2,27.9,30.51,East,90,0.0,-999.0,91,-99.99,,,0.00,Acu-Link.com,2013-01-10 06:19:00,
2013-01-10 01:35:00,30.2,28.2,30.51,ENE,67,0.0,-999.0,92,-99.99,,,0.00,Acu-Link.com,2013-01-10 06:35:00,
2013-01-10 01:50:00,30.2,28.4,30.51,East,90,0.0,-999.0,93,-99.99,,,0.00,Acu-Link.com,2013-01-10 06:50:00,
2013-01-10 02:05:00,30.2,28.7,30.51,East,90,0.0,-999.0,94,-99.99,,,0.00,Acu-Link.com,2013-01-10 07:05:00,
2013-01-10 02:20:00,28.4,26.9,30.52,East,90,0.0,-999.0,94,-99.99,,,0.00,Acu-Link.com,2013-01-10 07:20:00,
2013-01-10 02:36:00,28.4,26.9,30.52,ESE,112,0.0,-999.0,94,-99.99,,,0.00,Acu-Link.com,2013-01-10 07:36:00,
2013-01-10 02:51:00,28.4,26.9,30.51,SE,135,0.0,-999.0,94,-99.99,,,0.00,Acu-Link.com,2013-01-10 07:51:00,
2013-01-10 03:06:00,28.4,27.2,30.51,East,90,0.0,-999.0,95,-99.99,,,0.00,Acu-Link.com,2013-01-10 08:06:00,
2013-01-10 03:21:00,28.4,27.4,30.51,NNE,22,0.0,-999.0,96,-99.99,,,0.00,Acu-Link.com,2013-01-10 08:21:00,
2013-01-10 03:37:00,26.6,25.6,58.92,East,90,0.0,-999.0,96,-99.99,,,0.00,Acu-Link.com,2013-01-10 08:37:00,
2013-01-10 03:52:00,26.6,25.6,30.51,East,90,0.0,-999.0,96,-99.99,,,0.00,Acu-Link.com,2013-01-10 08:52:00,
2013-01-10 04:09:00,26.6,25.6,30.52,East,90,0.0,-999.0,96,-99.99,,,0.00,Acu-Link.com,2013-01-10 09:09:00,
2013-01-10 04:24:00,26.6,25.9,30.51,SE,135,0.0,-999.0,97,-99.99,,,0.00,Acu-Link.com,2013-01-10 09:24:00,
2013-01-10 04:39:00,26.6,25.9,30.51,East,90,0.0,-999.0,97,-99.99,,,0.00,Acu-Link.com,2013-01-10 09:39:00,
2013-01-10 04:54:00,26.6,25.9,30.51,ENE,67,0.0,-999.0,97,-99.99,,,0.00,Acu-Link.com,2013-01-10 09:54:00,
2013-01-10 05:10:00,26.6,25.9,30.51,East,90,0.0,-999.0,97,-99.99,,,0.00,Acu-Link.com,2013-01-10 10:10:00,
2013-01-10 05:25:00,26.6,25.9,30.52,East,90,0.0,-999.0,97,-99.99,,,0.00,Acu-Link.com,2013-01-10 10:25:00,
2013-01-10 05:40:00,26.6,25.9,30.52,SSE,157,0.0,-999.0,97,-99.99,,,0.00,Acu-Link.com,2013-01-10 10:40:00,
2013-01-10 05:56:00,26.6,25.9,30.53,South,180,0.0,-999.0,97,-99.99,,,0.00,Acu-Link.com,2013-01-10 10:56:00,
2013-01-10 06:11:00,26.6,25.9,30.53,ENE,67,0.0,-999.0,97,-99.99,,,0.00,Acu-Link.com,2013-01-10 11:11:00,
2013-01-10 06:26:00,26.6,26.1,30.54,ENE,67,0.0,-999.0,98,-99.99,,,0.00,Acu-Link.com,2013-01-10 11:26:00,
2013-01-10 06:42:00,24.8,24.3,30.54,SSE,157,0.0,-999.0,98,-99.99,,,0.00,Acu-Link.com,2013-01-10 11:42:00,
2013-01-10 06:57:00,24.8,24.3,30.55,East,90,0.0,-999.0,98,-99.99,,,0.00,Acu-Link.com,2013-01-10 11:57:00,
2013-01-10 07:12:00,24.8,24.3,30.55,SE,135,0.0,-999.0,98,-99.99,,,0.00,Acu-Link.com,2013-01-10 12:12:00,
2013-01-10 07:27:00,24.8,24.3,30.55,ENE,67,0.0,-999.0,98,-99.99,,,0.00,Acu-Link.com,2013-01-10 12:27:00,
2013-01-10 07:42:00,24.8,24.3,30.55,SE,135,0.0,-999.0,98,-99.99,,,0.00,Acu-Link.com,2013-01-10 12:42:00,
2013-01-10 07:58:00,24.8,24.3,30.56,SSW,202,0.0,-999.0,98,-99.99,,,0.00,Acu-Link.com,2013-01-10 12:58:00,
2013-01-10 08:13:00,24.8,24.3,30.56,East,90,0.0,-999.0,98,-99.99,,,0.00,Acu-Link.com,2013-01-10 13:13:00,
2013-01-10 08:28:00,26.6,26.1,30.58,SSE,157,0.0,-999.0,98,-99.99,,,0.00,Acu-Link.com,2013-01-10 13:28:00,
2013-01-10 08:43:00,26.6,26.1,30.58,ENE,67,0.0,-999.0,98,-99.99,,,0.00,Acu-Link.com,2013-01-10 13:43:00,
2013-01-10 08:59:00,26.6,26.1,30.57,SSW,202,0.0,-999.0,98,-99.99,,,0.00,Acu-Link.com,2013-01-10 13:59:00,
2013-01-10 09:14:00,28.4,27.9,30.58,East,90,0.0,-999.0,98,-99.99,,,0.00,Acu-Link.com,2013-01-10 14:14:00,
2013-01-10 09:29:00,28.4,27.9,30.58,ENE,67,0.0,-999.0,98,-99.99,,,0.00,Acu-Link.com,2013-01-10 14:29:00,
2013-01-10 09:44:00,30.2,29.7,30.58,South,180,0.0,-999.0,98,-99.99,,,0.00,Acu-Link.com,2013-01-10 14:44:00,
2013-01-10 10:00:00,32.0,31.2,30.57,South,180,0.0,-999.0,97,-99.99,,,0.00,Acu-Link.com,2013-01-10 15:00:00,
2013-01-10 10:15:00,32.0,31.0,30.58,SE,135,0.0,-999.0,96,-99.99,,,0.00,Acu-Link.com,2013-01-10 15:15:00,
2013-01-10 10:30:00,35.6,32.1,30.58,South,180,0.0,-999.0,87,-99.99,,,0.00,Acu-Link.com,2013-01-10 15:30:00,
2013-01-10 10:45:00,35.6,31.3,30.58,SSE,157,0.0,-999.0,84,-99.99,,,0.00,Acu-Link.com,2013-01-10 15:45:00,
2013-01-10 11:00:00,37.4,30.2,30.58,ESE,112,0.0,-999.0,75,-99.99,,,0.00,Acu-Link.com,2013-01-10 16:00:00,
2013-01-10 11:16:00,37.4,29.2,30.57,South,180,0.0,-999.0,72,-99.99,,,0.00,Acu-Link.com,2013-01-10 16:16:00,
2013-01-10 11:31:00,39.2,29.9,30.56,NNE,22,0.0,-999.0,69,-99.99,,,0.00,Acu-Link.com,2013-01-10 16:31:00,
2013-01-10 11:46:00,39.2,29.2,30.56,East,90,2.0,-999.0,67,-99.99,,,0.00,Acu-Link.com,2013-01-10 16:46:00,
2013-01-10 12:02:00,41.0,30.2,30.54,SE,135,3.1,-999.0,65,-99.99,,,0.00,Acu-Link.com,2013-01-10 17:02:00,
2013-01-10 12:17:00,41.0,30.2,30.53,NNW,337,1.1,-999.0,65,-99.99,,,0.00,Acu-Link.com,2013-01-10 17:17:00,
2013-01-10 12:32:00,41.0,29.0,30.52,ENE,67,2.0,-999.0,62,-99.99,,,0.00,Acu-Link.com,2013-01-10 17:32:00,
2013-01-10 12:47:00,41.0,30.5,30.51,SW,225,2.7,-999.0,66,-99.99,,,0.00,Acu-Link.com,2013-01-10 17:47:00,
2013-01-10 13:02:00,41.0,29.4,30.50,NNE,22,0.0,-999.0,63,-99.99,,,0.00,Acu-Link.com,2013-01-10 18:02:00,
2013-01-10 13:18:00,41.0,29.0,30.50,NW,315,1.6,-999.0,62,-99.99,,,0.00,Acu-Link.com,2013-01-10 18:18:00,
2013-01-10 13:33:00,41.0,29.4,30.49,SW,225,2.0,-999.0,63,-99.99,,,0.00,Acu-Link.com,2013-01-10 18:33:00,
2013-01-10 13:48:00,41.0,28.6,30.49,ESE,112,1.6,-999.0,61,-99.99,,,0.00,Acu-Link.com,2013-01-10 18:48:00,
2013-01-10 14:03:00,41.0,29.4,30.47,NNE,22,1.6,-999.0,63,-99.99,,,0.00,Acu-Link.com,2013-01-10 19:03:00,
2013-01-10 14:19:00,42.8,30.3,30.47,NE,45,2.7,-999.0,61,-99.99,,,0.00,Acu-Link.com,2013-01-10 19:19:00,
2013-01-10 14:34:00,41.0,29.0,30.47,East,90,2.7,-999.0,62,-99.99,,,0.00,Acu-Link.com,2013-01-10 19:34:00,
2013-01-10 14:49:00,42.8,30.3,30.47,West,270,2.7,-999.0,61,-99.99,,,0.00,Acu-Link.com,2013-01-10 19:49:00,
2013-01-10 15:05:00,42.8,29.5,30.47,East,90,1.6,-999.0,59,-99.99,,,0.00,Acu-Link.com,2013-01-10 20:05:00,
2013-01-10 15:20:00,42.8,28.6,30.45,SE,135,2.0,-999.0,57,-99.99,,,0.00,Acu-Link.com,2013-01-10 20:20:00,
2013-01-10 15:35:00,44.6,29.9,30.45,South,180,2.0,-999.0,56,-99.99,,,0.00,Acu-Link.com,2013-01-10 20:35:00,
2013-01-10 15:51:00,42.8,28.6,30.44,SE,135,1.6,-999.0,57,-99.99,,,0.00,Acu-Link.com,2013-01-10 20:51:00,
2013-01-10 16:06:00,42.8,29.9,30.44,NNW,337,0.0,-999.0,60,-99.99,,,0.00,Acu-Link.com,2013-01-10 21:06:00,
2013-01-10 16:21:00,41.0,29.4,30.44,SE,135,2.0,-999.0,63,-99.99,,,0.00,Acu-Link.com,2013-01-10 21:21:00,
2013-01-10 16:36:00,41.0,30.2,30.43,East,90,1.1,-999.0,65,-99.99,,,0.00,Acu-Link.com,2013-01-10 21:36:00,
2013-01-10 16:51:00,39.2,29.5,30.41,ESE,112,1.1,-999.0,68,-99.99,,,0.00,Acu-Link.com,2013-01-10 21:51:00,
2013-01-10 17:07:00,37.4,28.5,30.41,East,90,1.6,-999.0,70,-99.99,,,0.00,Acu-Link.com,2013-01-10 22:07:00,
2013-01-10 17:22:00,37.4,28.5,30.40,ESE,112,2.7,-999.0,70,-99.99,,,0.00,Acu-Link.com,2013-01-10 22:22:00,
2013-01-10 17:37:00,37.4,29.6,30.40,South,180,0.0,-999.0,73,-99.99,,,0.00,Acu-Link.com,2013-01-10 22:37:00,
2013-01-10 17:52:00,35.6,28.1,30.41,East,90,0.0,-999.0,74,-99.99,,,0.00,Acu-Link.com,2013-01-10 22:52:00,
2013-01-10 18:08:00,35.6,27.8,30.40,East,90,0.0,-999.0,73,-99.99,,,0.00,Acu-Link.com,2013-01-10 23:08:00,
2013-01-10 18:23:00,35.6,28.1,30.41,East,90,0.0,-999.0,74,-99.99,,,0.00,Acu-Link.com,2013-01-10 23:23:00,
2013-01-10 18:38:00,35.6,28.5,30.38,ESE,112,2.0,-999.0,75,-99.99,,,0.00,Acu-Link.com,2013-01-10 23:38:00,
2013-01-10 18:54:00,35.6,27.8,30.38,SE,135,1.6,-999.0,73,-99.99,,,0.00,Acu-Link.com,2013-01-10 23:54:00,
2013-01-10 19:09:00,35.6,28.1,30.38,SE,135,2.7,-999.0,74,-99.99,,,0.00,Acu-Link.com,2013-01-11 00:09:00,
2013-01-10 19:24:00,37.4,29.2,30.37,ESE,112,2.0,-999.0,72,-99.99,,,0.00,Acu-Link.com,2013-01-11 00:24:00,
2013-01-10 19:39:00,37.4,29.6,30.36,ESE,112,2.7,-999.0,73,-99.99,,,0.00,Acu-Link.com,2013-01-11 00:39:00,
2013-01-10 19:54:00,37.4,29.2,30.35,NNE,22,1.1,-999.0,72,-99.99,,,0.00,Acu-Link.com,2013-01-11 00:54:00,
2013-01-10 20:10:00,37.4,29.6,30.34,West,270,0.0,-999.0,73,-99.99,,,0.00,Acu-Link.com,2013-01-11 01:10:00,
2013-01-10 20:25:00,37.4,29.6,30.35,ENE,67,0.0,-999.0,73,-99.99,,,0.00,Acu-Link.com,2013-01-11 01:25:00,
2013-01-10 20:40:00,37.4,30.2,30.34,SE,135,0.0,-999.0,75,-99.99,,,0.00,Acu-Link.com,2013-01-11 01:40:00,
2013-01-10 20:55:00,35.6,28.8,30.33,ESE,112,2.0,-999.0,76,-99.99,,,0.00,Acu-Link.com,2013-01-11 01:55:00,
2013-01-10 21:11:00,35.6,28.5,30.32,NE,45,2.7,-999.0,75,-99.99,,,0.00,Acu-Link.com,2013-01-11 02:11:00,
2013-01-10 21:26:00,35.6,27.5,30.30,SW,225,3.6,-999.0,72,-99.99,,,0.00,Acu-Link.com,2013-01-11 02:26:00,
2013-01-10 21:41:00,37.4,28.9,30.30,SE,135,1.6,-999.0,71,-99.99,,,0.00,Acu-Link.com,2013-01-11 02:41:00,
2013-01-10 21:57:00,37.4,28.2,30.29,ESE,112,3.6,-999.0,69,-99.99,,,0.00,Acu-Link.com,2013-01-11 02:57:00,
2013-01-10 22:12:00,37.4,27.8,30.28,ENE,67,2.7,-999.0,68,-99.99,,,0.00,Acu-Link.com,2013-01-11 03:12:00,
2013-01-10 22:27:00,37.4,28.2,30.26,ESE,112,2.0,-999.0,69,-99.99,,,0.00,Acu-Link.com,2013-01-11 03:27:00,
2013-01-10 22:43:00,37.4,27.5,30.24,SE,135,2.7,-999.0,67,-99.99,,,0.00,Acu-Link.com,2013-01-11 03:43:00,
2013-01-10 22:58:00,37.4,27.5,30.23,SSE,157,2.0,-999.0,67,-99.99,,,0.00,Acu-Link.com,2013-01-11 03:58:00,
2013-01-10 23:13:00,37.4,27.1,30.23,ESE,112,2.0,-999.0,66,-99.99,,,0.00,Acu-Link.com,2013-01-11 04:13:00,
2013-01-10 23:28:00,37.4,27.1,30.21,ESE,112,2.7,-999.0,66,-99.99,,,0.00,Acu-Link.com,2013-01-11 04:28:00,
2013-01-10 23:44:00,39.2,27.3,30.20,SE,135,3.6,-999.0,62,-99.99,,,0.00,Acu-Link.com,2013-01-11 04:44:00,
2013-01-10 23:59:00,39.2,28.4,30.20,ESE,112,3.6,-999.0,65,-99.99,,,0.00,Acu-Link.com,2013-01-11 04:59:00,